owner,sensor,date,latitude,longitude,vertical_datum,mass_concentration_of_oxygen_in_sea_water,qcFlag 
SCCF RECON,ioos:station:SCCF:12:1,2011-03-01T00:00:00Z,26.4966,-82.1479,2.258,-9999.0,1111122 
SCCF RECON,ioos:station:SCCF:12:1,2011-03-01T01:00:00Z,26.4966,-82.1479,2.329,-9999.0,1111122 
SCCF RECON,ioos:station:SCCF:12:1,2011-03-01T02:00:00Z,26.4966,-82.1479,2.36,-9999.0,1111122 
SCCF RECON,ioos:station:SCCF:12:1,2011-03-01T03:00:00Z,26.4966,-82.1479,2.34,-9999.0,1111122 
SCCF RECON,ioos:station:SCCF:12:1,2011-03-01T04:00:00Z,26.4966,-82.1479,2.28,-9999.0,1111122 
SCCF RECON,ioos:station:SCCF:12:1,2011-03-01T05:00:00Z,26.4966,-82.1479,2.21,-9999.0,1111122 
SCCF RECON,ioos:station:SCCF:12:1,2011-03-01T06:00:00Z,26.4966,-82.1479,2.13,-9999.0,1111122 
SCCF RECON,ioos:station:SCCF:12:1,2011-03-01T07:00:00Z,26.4966,-82.1479,2.01,-9999.0,1111122 
SCCF RECON,ioos:station:SCCF:12:1,2011-03-01T08:00:00Z,26.4966,-82.1479,1.895,-9999.0,1111122 
SCCF RECON,ioos:station:SCCF:12:1,2011-03-01T09:00:00Z,26.4966,-82.1479,1.78,-9999.0,1111122 
SCCF RECON,ioos:station:SCCF:12:1,2011-03-01T10:00:00Z,26.4966,-82.1479,1.68,-9999.0,1111122 
SCCF RECON,ioos:station:SCCF:12:1,2011-03-01T11:00:00Z,26.4966,-82.1479,1.61,-9999.0,1111122 
SCCF RECON,ioos:station:SCCF:12:1,2011-03-01T12:00:00Z,26.4966,-82.1479,1.62,-9999.0,1111122 
SCCF RECON,ioos:station:SCCF:12:1,2011-03-01T13:00:00Z,26.4966,-82.1479,1.731,-9999.0,1111122 
SCCF RECON,ioos:station:SCCF:12:1,2011-03-01T14:00:00Z,26.4966,-82.1479,1.86,-9999.0,1111122 
SCCF RECON,ioos:station:SCCF:12:1,2011-03-01T15:00:00Z,26.4966,-82.1479,1.976,-9999.0,1111122 
SCCF RECON,ioos:station:SCCF:12:1,2011-03-01T16:00:00Z,26.4966,-82.1479,2.081,-9999.0,1111122 
SCCF RECON,ioos:station:SCCF:12:1,2011-03-01T17:00:00Z,26.4966,-82.1479,2.14,-9999.0,1111122 
SCCF RECON,ioos:station:SCCF:12:1,2011-03-01T18:00:00Z,26.4966,-82.1479,2.145,-9999.0,1111122 
SCCF RECON,ioos:station:SCCF:12:1,2011-03-01T19:00:00Z,26.4966,-82.1479,2.118,-9999.0,1111122 
SCCF RECON,ioos:station:SCCF:12:1,2011-03-01T20:00:00Z,26.4966,-82.1479,2.08,-9999.0,1111122 
SCCF RECON,ioos:station:SCCF:12:1,2011-03-01T21:00:00Z,26.4966,-82.1479,2.041,-9999.0,1111122 
SCCF RECON,ioos:station:SCCF:12:1,2011-03-01T22:00:00Z,26.4966,-82.1479,2.02,-9999.0,1111122 
SCCF RECON,ioos:station:SCCF:12:1,2011-03-01T23:00:00Z,26.4966,-82.1479,2.037,-9999.0,1111122 
SCCF RECON,ioos:station:SCCF:12:1,2011-03-02T00:00:00Z,26.4966,-82.1479,2.11,-9999.0,1111122 
SCCF RECON,ioos:station:SCCF:12:1,2011-03-02T01:00:00Z,26.4966,-82.1479,2.249,-9999.0,1111122 
SCCF RECON,ioos:station:SCCF:12:1,2011-03-02T02:00:00Z,26.4966,-82.1479,2.35,-9999.0,1111122 
SCCF RECON,ioos:station:SCCF:12:1,2011-03-02T03:00:00Z,26.4966,-82.1479,2.416,-9999.0,1111122 
SCCF RECON,ioos:station:SCCF:12:1,2011-03-02T04:00:00Z,26.4966,-82.1479,2.422,-9999.0,1111122 
SCCF RECON,ioos:station:SCCF:12:1,2011-03-02T05:00:00Z,26.4966,-82.1479,2.374,-9999.0,1111122 
SCCF RECON,ioos:station:SCCF:12:1,2011-03-02T06:00:00Z,26.4966,-82.1479,2.279,-9999.0,1111122 
SCCF RECON,ioos:station:SCCF:12:1,2011-03-02T07:00:00Z,26.4966,-82.1479,2.161,-9999.0,1111122 
SCCF RECON,ioos:station:SCCF:12:1,2011-03-02T08:00:00Z,26.4966,-82.1479,2.052,-9999.0,1111122 
SCCF RECON,ioos:station:SCCF:12:1,2011-03-02T09:00:00Z,26.4966,-82.1479,1.945,-9999.0,1111122 
SCCF RECON,ioos:station:SCCF:12:1,2011-03-02T10:00:00Z,26.4966,-82.1479,1.84,-9999.0,1111122 
SCCF RECON,ioos:station:SCCF:12:1,2011-03-02T11:00:00Z,26.4966,-82.1479,1.757,-9999.0,1111122 
SCCF RECON,ioos:station:SCCF:12:1,2011-03-02T12:00:00Z,26.4966,-82.1479,1.709,-9999.0,1111122 
SCCF RECON,ioos:station:SCCF:12:1,2011-03-02T13:00:00Z,26.4966,-82.1479,1.736,-9999.0,1111122 
SCCF RECON,ioos:station:SCCF:12:1,2011-03-02T14:00:00Z,26.4966,-82.1479,1.846,-9999.0,1111122 
SCCF RECON,ioos:station:SCCF:12:1,2011-03-02T15:00:00Z,26.4966,-82.1479,1.971,-9999.0,1111122 
SCCF RECON,ioos:station:SCCF:12:1,2011-03-02T16:00:00Z,26.4966,-82.1479,2.062,-9999.0,1111122 
SCCF RECON,ioos:station:SCCF:12:1,2011-03-02T17:00:00Z,26.4966,-82.1479,2.12,-9999.0,1111122 
SCCF RECON,ioos:station:SCCF:12:1,2011-03-02T18:00:00Z,26.4966,-82.1479,2.129,-9999.0,1111122 
SCCF RECON,ioos:station:SCCF:12:1,2011-03-02T19:00:00Z,26.4966,-82.1479,2.078,-9999.0,1111122 
SCCF RECON,ioos:station:SCCF:12:1,2011-03-02T20:00:00Z,26.4966,-82.1479,1.997,-9999.0,1111122 
SCCF RECON,ioos:station:SCCF:12:1,2011-03-02T21:00:00Z,26.4966,-82.1479,1.929,-9999.0,1111122 
SCCF RECON,ioos:station:SCCF:12:1,2011-03-02T22:00:00Z,26.4966,-82.1479,1.905,-9999.0,1111122 
SCCF RECON,ioos:station:SCCF:12:1,2011-03-02T23:00:00Z,26.4966,-82.1479,1.872,-9999.0,1111122 
SCCF RECON,ioos:station:SCCF:12:1,2011-03-03T00:00:00Z,26.4966,-82.1479,1.893,-9999.0,1111122 
SCCF RECON,ioos:station:SCCF:12:1,2011-03-03T01:00:00Z,26.4966,-82.1479,1.982,-9999.0,1111122 
SCCF RECON,ioos:station:SCCF:12:1,2011-03-03T02:00:00Z,26.4966,-82.1479,2.094,-9999.0,1111122 
SCCF RECON,ioos:station:SCCF:12:1,2011-03-03T03:00:00Z,26.4966,-82.1479,2.194,-9999.0,1111122 
SCCF RECON,ioos:station:SCCF:12:1,2011-03-03T04:00:00Z,26.4966,-82.1479,2.26,-9999.0,1111122 
SCCF RECON,ioos:station:SCCF:12:1,2011-03-03T05:00:00Z,26.4966,-82.1479,2.274,-9999.0,1111122 
SCCF RECON,ioos:station:SCCF:12:1,2011-03-03T06:00:00Z,26.4966,-82.1479,2.24,-9999.0,1111122 
SCCF RECON,ioos:station:SCCF:12:1,2011-03-03T07:00:00Z,26.4966,-82.1479,2.163,-9999.0,1111122 
SCCF RECON,ioos:station:SCCF:12:1,2011-03-03T08:00:00Z,26.4966,-82.1479,2.032,-9999.0,1111122 
SCCF RECON,ioos:station:SCCF:12:1,2011-03-03T09:00:00Z,26.4966,-82.1479,1.932,-9999.0,1111122 
SCCF RECON,ioos:station:SCCF:12:1,2011-03-03T10:00:00Z,26.4966,-82.1479,1.86,-9999.0,1111122 
SCCF RECON,ioos:station:SCCF:12:1,2011-03-03T11:00:00Z,26.4966,-82.1479,1.812,-9999.0,1111122 
SCCF RECON,ioos:station:SCCF:12:1,2011-03-03T12:00:00Z,26.4966,-82.1479,1.794,-9999.0,1111122 
SCCF RECON,ioos:station:SCCF:12:1,2011-03-03T13:00:00Z,26.4966,-82.1479,1.853,-9999.0,1111122 
SCCF RECON,ioos:station:SCCF:12:1,2011-03-03T14:00:00Z,26.4966,-82.1479,1.998,-9999.0,1111122 
SCCF RECON,ioos:station:SCCF:12:1,2011-03-03T15:00:00Z,26.4966,-82.1479,2.134,-9999.0,1111122 
SCCF RECON,ioos:station:SCCF:12:1,2011-03-03T16:00:00Z,26.4966,-82.1479,2.211,-9999.0,1111122 
SCCF RECON,ioos:station:SCCF:12:1,2011-03-03T17:00:00Z,26.4966,-82.1479,2.275,-9999.0,1111122 
SCCF RECON,ioos:station:SCCF:12:1,2011-03-03T18:00:00Z,26.4966,-82.1479,2.276,-9999.0,1111122 
SCCF RECON,ioos:station:SCCF:12:1,2011-03-03T19:00:00Z,26.4966,-82.1479,2.262,-9999.0,1111122 
SCCF RECON,ioos:station:SCCF:12:1,2011-03-03T20:00:00Z,26.4966,-82.1479,2.213,-9999.0,1111122 
SCCF RECON,ioos:station:SCCF:12:1,2011-03-03T21:00:00Z,26.4966,-82.1479,2.141,-9999.0,1111122 
SCCF RECON,ioos:station:SCCF:12:1,2011-03-03T22:00:00Z,26.4966,-82.1479,2.077,-9999.0,1111122 
SCCF RECON,ioos:station:SCCF:12:1,2011-03-03T23:00:00Z,26.4966,-82.1479,2.002,-9999.0,1111122 
SCCF RECON,ioos:station:SCCF:12:1,2011-03-04T00:00:00Z,26.4966,-82.1479,1.967,-9999.0,1111122 
SCCF RECON,ioos:station:SCCF:12:1,2011-03-04T01:00:00Z,26.4966,-82.1479,2.021,-9999.0,1111122 
SCCF RECON,ioos:station:SCCF:12:1,2011-03-04T02:00:00Z,26.4966,-82.1479,2.156,-9999.0,1111122 
SCCF RECON,ioos:station:SCCF:12:1,2011-03-04T03:00:00Z,26.4966,-82.1479,2.281,-9999.0,1111122 
SCCF RECON,ioos:station:SCCF:12:1,2011-03-04T04:00:00Z,26.4966,-82.1479,2.364,-9999.0,1111122 
SCCF RECON,ioos:station:SCCF:12:1,2011-03-04T05:00:00Z,26.4966,-82.1479,2.382,-9999.0,1111122 
SCCF RECON,ioos:station:SCCF:12:1,2011-03-04T06:00:00Z,26.4966,-82.1479,2.323,-9999.0,1111122 
SCCF RECON,ioos:station:SCCF:12:1,2011-03-04T07:00:00Z,26.4966,-82.1479,2.228,-9999.0,1111122 
SCCF RECON,ioos:station:SCCF:12:1,2011-03-04T08:00:00Z,26.4966,-82.1479,2.131,-9999.0,1111122 
SCCF RECON,ioos:station:SCCF:12:1,2011-03-04T09:00:00Z,26.4966,-82.1479,2.031,-9999.0,1111122 
SCCF RECON,ioos:station:SCCF:12:1,2011-03-04T10:00:00Z,26.4966,-82.1479,1.936,-9999.0,1111122 
SCCF RECON,ioos:station:SCCF:12:1,2011-03-04T11:00:00Z,26.4966,-82.1479,1.857,-9999.0,1111122 
SCCF RECON,ioos:station:SCCF:12:1,2011-03-04T12:00:00Z,26.4966,-82.1479,1.797,-9999.0,1111122 
SCCF RECON,ioos:station:SCCF:12:1,2011-03-04T13:00:00Z,26.4966,-82.1479,1.79,-9999.0,1111122 
SCCF RECON,ioos:station:SCCF:12:1,2011-03-04T14:00:00Z,26.4966,-82.1479,1.883,-9999.0,1111122 
SCCF RECON,ioos:station:SCCF:12:1,2011-03-04T15:00:00Z,26.4966,-82.1479,2.018,-9999.0,1111122 
SCCF RECON,ioos:station:SCCF:12:1,2011-03-04T16:00:00Z,26.4966,-82.1479,2.138,-9999.0,1111122 
SCCF RECON,ioos:station:SCCF:12:1,2011-03-04T17:00:00Z,26.4966,-82.1479,2.255,-9999.0,1111122 
SCCF RECON,ioos:station:SCCF:12:1,2011-03-04T18:00:00Z,26.4966,-82.1479,2.309,-9999.0,1111122 
SCCF RECON,ioos:station:SCCF:12:1,2011-03-04T19:00:00Z,26.4966,-82.1479,2.311,-9999.0,1111122 
SCCF RECON,ioos:station:SCCF:12:1,2011-03-04T20:00:00Z,26.4966,-82.1479,2.249,-9999.0,1111122 
SCCF RECON,ioos:station:SCCF:12:1,2011-03-04T21:00:00Z,26.4966,-82.1479,2.165,-9999.0,1111122 
SCCF RECON,ioos:station:SCCF:12:1,2011-03-04T22:00:00Z,26.4966,-82.1479,2.087,-9999.0,1111122 
SCCF RECON,ioos:station:SCCF:12:1,2011-03-04T23:00:00Z,26.4966,-82.1479,2.038,-9999.0,1111122 
SCCF RECON,ioos:station:SCCF:12:1,2011-03-05T00:00:00Z,26.4966,-82.1479,2.016,-9999.0,1111122 
SCCF RECON,ioos:station:SCCF:12:1,2011-03-05T01:00:00Z,26.4966,-82.1479,2.049,-9999.0,1111122 
SCCF RECON,ioos:station:SCCF:12:1,2011-03-05T02:00:00Z,26.4966,-82.1479,2.143,-9999.0,1111122 
SCCF RECON,ioos:station:SCCF:12:1,2011-03-05T03:00:00Z,26.4966,-82.1479,2.261,-9999.0,1111122 
SCCF RECON,ioos:station:SCCF:12:1,2011-03-05T04:00:00Z,26.4966,-82.1479,2.376,-9999.0,1111122 
SCCF RECON,ioos:station:SCCF:12:1,2011-03-05T05:00:00Z,26.4966,-82.1479,2.46,-9999.0,1111122 
SCCF RECON,ioos:station:SCCF:12:1,2011-03-05T06:00:00Z,26.4966,-82.1479,2.48,-9999.0,1111122 
SCCF RECON,ioos:station:SCCF:12:1,2011-03-05T07:00:00Z,26.4966,-82.1479,2.423,-9999.0,1111122 
SCCF RECON,ioos:station:SCCF:12:1,2011-03-05T08:00:00Z,26.4966,-82.1479,2.32,-9999.0,1111122 
SCCF RECON,ioos:station:SCCF:12:1,2011-03-05T09:00:00Z,26.4966,-82.1479,2.2,-9999.0,1111122 
SCCF RECON,ioos:station:SCCF:12:1,2011-03-05T10:00:00Z,26.4966,-82.1479,2.1,-9999.0,1111122 
SCCF RECON,ioos:station:SCCF:12:1,2011-03-05T11:00:00Z,26.4966,-82.1479,2.012,-9999.0,1111122 
SCCF RECON,ioos:station:SCCF:12:1,2011-03-05T12:00:00Z,26.4966,-82.1479,1.934,-9999.0,1111122 
SCCF RECON,ioos:station:SCCF:12:1,2011-03-05T13:00:00Z,26.4966,-82.1479,1.898,-9999.0,1111122 
SCCF RECON,ioos:station:SCCF:12:1,2011-03-05T14:00:00Z,26.4966,-82.1479,1.943,-9999.0,1111122 
SCCF RECON,ioos:station:SCCF:12:1,2011-03-05T15:00:00Z,26.4966,-82.1479,2.061,-9999.0,1111122 
SCCF RECON,ioos:station:SCCF:12:1,2011-03-05T16:00:00Z,26.4966,-82.1479,2.198,-9999.0,1111122 
SCCF RECON,ioos:station:SCCF:12:1,2011-03-05T17:00:00Z,26.4966,-82.1479,2.315,-9999.0,1111122 
SCCF RECON,ioos:station:SCCF:12:1,2011-03-05T18:00:00Z,26.4966,-82.1479,2.39,-9999.0,1111122 
SCCF RECON,ioos:station:SCCF:12:1,2011-03-05T19:00:00Z,26.4966,-82.1479,2.383,-9999.0,1111122 
SCCF RECON,ioos:station:SCCF:12:1,2011-03-05T20:00:00Z,26.4966,-82.1479,2.297,-9999.0,1111122 
SCCF RECON,ioos:station:SCCF:12:1,2011-03-05T21:00:00Z,26.4966,-82.1479,2.189,-9999.0,1111122 
SCCF RECON,ioos:station:SCCF:12:1,2011-03-05T22:00:00Z,26.4966,-82.1479,2.085,-9999.0,1111122 
SCCF RECON,ioos:station:SCCF:12:1,2011-03-05T23:00:00Z,26.4966,-82.1479,2.0,-9999.0,1111122 
SCCF RECON,ioos:station:SCCF:12:1,2011-03-06T00:00:00Z,26.4966,-82.1479,1.93,-9999.0,1111122 
SCCF RECON,ioos:station:SCCF:12:1,2011-03-06T01:00:00Z,26.4966,-82.1479,1.92,-9999.0,1111122 
SCCF RECON,ioos:station:SCCF:12:1,2011-03-06T02:00:00Z,26.4966,-82.1479,1.98,-9999.0,1111122 
SCCF RECON,ioos:station:SCCF:12:1,2011-03-06T03:00:00Z,26.4966,-82.1479,2.11,-9999.0,1111122 
SCCF RECON,ioos:station:SCCF:12:1,2011-03-06T04:00:00Z,26.4966,-82.1479,2.27,-9999.0,1111122 
SCCF RECON,ioos:station:SCCF:12:1,2011-03-06T05:00:00Z,26.4966,-82.1479,2.38,-9999.0,1111122 
SCCF RECON,ioos:station:SCCF:12:1,2011-03-06T06:00:00Z,26.4966,-82.1479,2.43,-9999.0,1111122 
SCCF RECON,ioos:station:SCCF:12:1,2011-03-06T07:00:00Z,26.4966,-82.1479,2.41,-9999.0,1111122 
SCCF RECON,ioos:station:SCCF:12:1,2011-03-06T08:00:00Z,26.4966,-82.1479,2.34,-9999.0,1111122 
SCCF RECON,ioos:station:SCCF:12:1,2011-03-06T09:00:00Z,26.4966,-82.1479,2.25,-9999.0,1111122 
SCCF RECON,ioos:station:SCCF:12:1,2011-03-06T10:00:00Z,26.4966,-82.1479,2.14,-9999.0,1111122 
SCCF RECON,ioos:station:SCCF:12:1,2011-03-06T11:00:00Z,26.4966,-82.1479,2.034,-9999.0,1111122 
SCCF RECON,ioos:station:SCCF:12:1,2011-03-06T12:00:00Z,26.4966,-82.1479,1.969,-9999.0,1111122 
SCCF RECON,ioos:station:SCCF:12:1,2011-03-06T13:00:00Z,26.4966,-82.1479,1.93,-9999.0,1111122 
SCCF RECON,ioos:station:SCCF:12:1,2011-03-06T14:00:00Z,26.4966,-82.1479,1.915,-9999.0,1111122 
SCCF RECON,ioos:station:SCCF:12:1,2011-03-06T15:00:00Z,26.4966,-82.1479,1.979,-9999.0,1111122 
SCCF RECON,ioos:station:SCCF:12:1,2011-03-06T16:00:00Z,26.4966,-82.1479,2.134,-9999.0,1111122 
SCCF RECON,ioos:station:SCCF:12:1,2011-03-06T17:00:00Z,26.4966,-82.1479,2.287,-9999.0,1111122 
SCCF RECON,ioos:station:SCCF:12:1,2011-03-06T18:00:00Z,26.4966,-82.1479,2.38,-9999.0,1111122 
SCCF RECON,ioos:station:SCCF:12:1,2011-03-06T19:00:00Z,26.4966,-82.1479,2.38,-9999.0,1111122 
SCCF RECON,ioos:station:SCCF:12:1,2011-03-06T20:00:00Z,26.4966,-82.1479,2.31,-9999.0,1111122 
SCCF RECON,ioos:station:SCCF:12:1,2011-03-06T21:00:00Z,26.4966,-82.1479,2.2,-9999.0,1111122 
SCCF RECON,ioos:station:SCCF:12:1,2011-03-06T22:00:00Z,26.4966,-82.1479,2.087,-9999.0,1111122 
SCCF RECON,ioos:station:SCCF:12:1,2011-03-06T23:00:00Z,26.4966,-82.1479,1.984,-9999.0,1111122 
SCCF RECON,ioos:station:SCCF:12:1,2011-03-07T00:00:00Z,26.4966,-82.1479,1.924,-9999.0,1111122 
SCCF RECON,ioos:station:SCCF:12:1,2011-03-07T01:00:00Z,26.4966,-82.1479,1.874,-9999.0,1111122 
SCCF RECON,ioos:station:SCCF:12:1,2011-03-07T02:00:00Z,26.4966,-82.1479,1.849,-9999.0,1111122 
SCCF RECON,ioos:station:SCCF:12:1,2011-03-07T03:00:00Z,26.4966,-82.1479,1.885,-9999.0,1111122 
SCCF RECON,ioos:station:SCCF:12:1,2011-03-07T04:00:00Z,26.4966,-82.1479,1.966,-9999.0,1111122 
SCCF RECON,ioos:station:SCCF:12:1,2011-03-07T05:00:00Z,26.4966,-82.1479,2.102,-9999.0,1111122 
SCCF RECON,ioos:station:SCCF:12:1,2011-03-07T06:00:00Z,26.4966,-82.1479,2.219,-9999.0,1111122 
SCCF RECON,ioos:station:SCCF:12:1,2011-03-07T07:00:00Z,26.4966,-82.1479,2.285,-9999.0,1111122 
SCCF RECON,ioos:station:SCCF:12:1,2011-03-07T08:00:00Z,26.4966,-82.1479,2.272,-9999.0,1111122 
SCCF RECON,ioos:station:SCCF:12:1,2011-03-07T09:00:00Z,26.4966,-82.1479,2.178,-9999.0,1111122 
SCCF RECON,ioos:station:SCCF:12:1,2011-03-07T10:00:00Z,26.4966,-82.1479,2.077,-9999.0,1111122 
SCCF RECON,ioos:station:SCCF:12:1,2011-03-07T11:00:00Z,26.4966,-82.1479,2.002,-9999.0,1111122 
SCCF RECON,ioos:station:SCCF:12:1,2011-03-07T12:00:00Z,26.4966,-82.1479,1.936,-9999.0,1111122 
SCCF RECON,ioos:station:SCCF:12:1,2011-03-07T13:00:00Z,26.4966,-82.1479,1.891,-9999.0,1111122 
SCCF RECON,ioos:station:SCCF:12:1,2011-03-07T14:00:00Z,26.4966,-82.1479,1.892,-9999.0,1111122 
SCCF RECON,ioos:station:SCCF:12:1,2011-03-07T15:00:00Z,26.4966,-82.1479,1.951,-9999.0,1111122 
SCCF RECON,ioos:station:SCCF:12:1,2011-03-07T16:00:00Z,26.4966,-82.1479,2.071,-9999.0,1111122 
SCCF RECON,ioos:station:SCCF:12:1,2011-03-07T17:00:00Z,26.4966,-82.1479,2.196,-9999.0,1111122 
SCCF RECON,ioos:station:SCCF:12:1,2011-03-07T18:00:00Z,26.4966,-82.1479,2.29,-9999.0,1111122 
SCCF RECON,ioos:station:SCCF:12:1,2011-03-07T19:00:00Z,26.4966,-82.1479,2.345,-9999.0,1111122 
SCCF RECON,ioos:station:SCCF:12:1,2011-03-07T20:00:00Z,26.4966,-82.1479,2.33,-9999.0,1111122 
SCCF RECON,ioos:station:SCCF:12:1,2011-03-07T21:00:00Z,26.4966,-82.1479,2.254,-9999.0,1111122 
SCCF RECON,ioos:station:SCCF:12:1,2011-03-07T22:00:00Z,26.4966,-82.1479,2.15,-9999.0,1111122 
SCCF RECON,ioos:station:SCCF:12:1,2011-03-07T23:00:00Z,26.4966,-82.1479,2.039,-9999.0,1111122 
SCCF RECON,ioos:station:SCCF:12:1,2011-03-08T00:00:00Z,26.4966,-82.1479,1.952,-9999.0,1111122 
SCCF RECON,ioos:station:SCCF:12:1,2011-03-08T01:00:00Z,26.4966,-82.1479,1.887,-9999.0,1111122 
SCCF RECON,ioos:station:SCCF:12:1,2011-03-08T02:00:00Z,26.4966,-82.1479,1.858,-9999.0,1111122 
SCCF RECON,ioos:station:SCCF:12:1,2011-03-08T03:00:00Z,26.4966,-82.1479,1.893,-9999.0,1111122 
SCCF RECON,ioos:station:SCCF:12:1,2011-03-08T04:00:00Z,26.4966,-82.1479,1.97,-9999.0,1111122 
SCCF RECON,ioos:station:SCCF:12:1,2011-03-08T05:00:00Z,26.4966,-82.1479,2.093,-9999.0,1111122 
SCCF RECON,ioos:station:SCCF:12:1,2011-03-08T06:00:00Z,26.4966,-82.1479,2.195,-9999.0,1111122 
SCCF RECON,ioos:station:SCCF:12:1,2011-03-08T07:00:00Z,26.4966,-82.1479,2.25,-9999.0,1111122 
SCCF RECON,ioos:station:SCCF:12:1,2011-03-08T08:00:00Z,26.4966,-82.1479,2.27,-9999.0,1111122 
SCCF RECON,ioos:station:SCCF:12:1,2011-03-08T09:00:00Z,26.4966,-82.1479,2.226,-9999.0,1111122 
SCCF RECON,ioos:station:SCCF:12:1,2011-03-08T10:00:00Z,26.4966,-82.1479,2.159,-9999.0,1111122 
SCCF RECON,ioos:station:SCCF:12:1,2011-03-08T11:00:00Z,26.4966,-82.1479,2.08,-9999.0,1111122 
SCCF RECON,ioos:station:SCCF:12:1,2011-03-08T12:00:00Z,26.4966,-82.1479,2.02,-9999.0,1111122 
SCCF RECON,ioos:station:SCCF:12:1,2011-03-08T13:00:00Z,26.4966,-82.1479,1.99,-9999.0,1111122 
SCCF RECON,ioos:station:SCCF:12:1,2011-03-08T14:00:00Z,26.4966,-82.1479,2.02,-9999.0,1111122 
SCCF RECON,ioos:station:SCCF:12:1,2011-03-08T15:00:00Z,26.4966,-82.1479,2.088,-9999.0,1111122 
SCCF RECON,ioos:station:SCCF:12:1,2011-03-08T16:00:00Z,26.4966,-82.1479,2.189,-9999.0,1111122 
SCCF RECON,ioos:station:SCCF:12:1,2011-03-08T17:00:00Z,26.4966,-82.1479,2.287,-9999.0,1111122 
SCCF RECON,ioos:station:SCCF:12:1,2011-03-08T18:00:00Z,26.4966,-82.1479,2.365,-9999.0,1111122 
SCCF RECON,ioos:station:SCCF:12:1,2011-03-08T19:00:00Z,26.4966,-82.1479,2.407,-9999.0,1111122 
SCCF RECON,ioos:station:SCCF:12:1,2011-03-08T20:00:00Z,26.4966,-82.1479,2.395,-9999.0,1111122 
SCCF RECON,ioos:station:SCCF:12:1,2011-03-08T21:00:00Z,26.4966,-82.1479,2.329,-9999.0,1111122 
SCCF RECON,ioos:station:SCCF:12:1,2011-03-08T22:00:00Z,26.4966,-82.1479,2.243,-9999.0,1111122 
SCCF RECON,ioos:station:SCCF:12:1,2011-03-08T23:00:00Z,26.4966,-82.1479,2.132,-9999.0,1111122 
SCCF RECON,ioos:station:SCCF:12:1,2011-03-09T00:00:00Z,26.4966,-82.1479,2.02,-9999.0,1111122 
SCCF RECON,ioos:station:SCCF:12:1,2011-03-09T01:00:00Z,26.4966,-82.1479,1.929,-9999.0,1111122 
SCCF RECON,ioos:station:SCCF:12:1,2011-03-09T02:00:00Z,26.4966,-82.1479,1.841,-9999.0,1111122 
SCCF RECON,ioos:station:SCCF:12:1,2011-03-09T03:00:00Z,26.4966,-82.1479,1.792,-9999.0,1111122 
SCCF RECON,ioos:station:SCCF:12:1,2011-03-09T04:00:00Z,26.4966,-82.1479,1.827,-9999.0,1111122 
SCCF RECON,ioos:station:SCCF:12:1,2011-03-09T05:00:00Z,26.4966,-82.1479,1.95,-9999.0,1111122 
SCCF RECON,ioos:station:SCCF:12:1,2011-03-09T06:00:00Z,26.4966,-82.1479,2.087,-9999.0,1111122 
SCCF RECON,ioos:station:SCCF:12:1,2011-03-09T07:00:00Z,26.4966,-82.1479,2.187,-9999.0,1111122 
SCCF RECON,ioos:station:SCCF:12:1,2011-03-09T08:00:00Z,26.4966,-82.1479,2.236,-9999.0,1111122 
SCCF RECON,ioos:station:SCCF:12:1,2011-03-09T09:00:00Z,26.4966,-82.1479,2.232,-9999.0,1111122 
SCCF RECON,ioos:station:SCCF:12:1,2011-03-09T10:00:00Z,26.4966,-82.1479,2.197,-9999.0,1111122 
SCCF RECON,ioos:station:SCCF:12:1,2011-03-09T11:00:00Z,26.4966,-82.1479,2.145,-9999.0,1111122 
SCCF RECON,ioos:station:SCCF:12:1,2011-03-09T12:00:00Z,26.4966,-82.1479,2.113,-9999.0,1111122 
SCCF RECON,ioos:station:SCCF:12:1,2011-03-09T13:00:00Z,26.4966,-82.1479,2.123,-9999.0,1111122 
SCCF RECON,ioos:station:SCCF:12:1,2011-03-09T14:00:00Z,26.4966,-82.1479,2.139,-9999.0,1111122 
SCCF RECON,ioos:station:SCCF:12:1,2011-03-09T15:00:00Z,26.4966,-82.1479,2.147,-9999.0,1111122 
SCCF RECON,ioos:station:SCCF:12:1,2011-03-09T16:00:00Z,26.4966,-82.1479,2.206,-9999.0,1111122 
SCCF RECON,ioos:station:SCCF:12:1,2011-03-09T17:00:00Z,26.4966,-82.1479,2.291,-9999.0,1111122 
SCCF RECON,ioos:station:SCCF:12:1,2011-03-09T18:00:00Z,26.4966,-82.1479,2.384,-9999.0,1111122 
SCCF RECON,ioos:station:SCCF:12:1,2011-03-09T19:00:00Z,26.4966,-82.1479,2.459,-9999.0,1111122 
SCCF RECON,ioos:station:SCCF:12:1,2011-03-09T20:00:00Z,26.4966,-82.1479,2.509,-9999.0,1111122 
SCCF RECON,ioos:station:SCCF:12:1,2011-03-09T21:00:00Z,26.4966,-82.1479,2.505,-9999.0,1111122 
SCCF RECON,ioos:station:SCCF:12:1,2011-03-09T22:00:00Z,26.4966,-82.1479,2.44,-9999.0,1111122 
SCCF RECON,ioos:station:SCCF:12:1,2011-03-09T23:00:00Z,26.4966,-82.1479,2.332,-9999.0,1111122 
SCCF RECON,ioos:station:SCCF:12:1,2011-03-10T00:00:00Z,26.4966,-82.1479,2.214,-9999.0,1111122 
SCCF RECON,ioos:station:SCCF:12:1,2011-03-10T01:00:00Z,26.4966,-82.1479,2.09,-9999.0,1111122 
SCCF RECON,ioos:station:SCCF:12:1,2011-03-10T02:00:00Z,26.4966,-82.1479,1.99,-9999.0,1111122 
SCCF RECON,ioos:station:SCCF:12:1,2011-03-10T03:00:00Z,26.4966,-82.1479,1.92,-9999.0,1111122 
SCCF RECON,ioos:station:SCCF:12:1,2011-03-10T04:00:00Z,26.4966,-82.1479,1.92,-9999.0,1111122 
SCCF RECON,ioos:station:SCCF:12:1,2011-03-10T05:00:00Z,26.4966,-82.1479,2.0,-9999.0,1111122 
SCCF RECON,ioos:station:SCCF:12:1,2011-03-10T06:00:00Z,26.4966,-82.1479,2.1,-9999.0,1111122 
SCCF RECON,ioos:station:SCCF:12:1,2011-03-10T07:00:00Z,26.4966,-82.1479,2.169,-9999.0,1111122 
SCCF RECON,ioos:station:SCCF:12:1,2011-03-10T08:00:00Z,26.4966,-82.1479,2.24,-9999.0,1111122 
SCCF RECON,ioos:station:SCCF:12:1,2011-03-10T09:00:00Z,26.4966,-82.1479,2.25,-9999.0,1111122 
SCCF RECON,ioos:station:SCCF:12:1,2011-03-10T10:00:00Z,26.4966,-82.1479,2.213,-9999.0,1111122 
SCCF RECON,ioos:station:SCCF:12:1,2011-03-10T11:00:00Z,26.4966,-82.1479,2.199,-9999.0,1111122 
SCCF RECON,ioos:station:SCCF:12:1,2011-03-10T12:00:00Z,26.4966,-82.1479,2.19,-9999.0,1111122 
SCCF RECON,ioos:station:SCCF:12:1,2011-03-10T13:00:00Z,26.4966,-82.1479,2.17,-9999.0,1111122 
SCCF RECON,ioos:station:SCCF:12:1,2011-03-10T14:00:00Z,26.4966,-82.1479,2.253,-9999.0,1111122 
SCCF RECON,ioos:station:SCCF:12:1,2011-03-10T15:00:00Z,26.4966,-82.1479,2.208,-9999.0,1111122 
SCCF RECON,ioos:station:SCCF:12:1,2011-03-10T16:00:00Z,26.4966,-82.1479,2.09,-9999.0,1111122 
SCCF RECON,ioos:station:SCCF:12:1,2011-03-10T17:00:00Z,26.4966,-82.1479,2.13,-9999.0,1111122 
SCCF RECON,ioos:station:SCCF:12:1,2011-03-10T18:00:00Z,26.4966,-82.1479,2.199,-9999.0,1111122 
SCCF RECON,ioos:station:SCCF:12:1,2011-03-10T19:00:00Z,26.4966,-82.1479,2.369,-9999.0,1111122 
SCCF RECON,ioos:station:SCCF:12:1,2011-03-10T20:00:00Z,26.4966,-82.1479,2.441,-9999.0,1111122 
SCCF RECON,ioos:station:SCCF:12:1,2011-03-10T21:00:00Z,26.4966,-82.1479,2.43,-9999.0,1111122 
SCCF RECON,ioos:station:SCCF:12:1,2011-03-10T22:00:00Z,26.4966,-82.1479,2.354,-9999.0,1111122 
SCCF RECON,ioos:station:SCCF:12:1,2011-03-10T23:00:00Z,26.4966,-82.1479,2.33,-9999.0,1111122 
SCCF RECON,ioos:station:SCCF:12:1,2011-03-11T00:00:00Z,26.4966,-82.1479,2.249,-9999.0,1111122 
SCCF RECON,ioos:station:SCCF:12:1,2011-03-11T01:00:00Z,26.4966,-82.1479,2.137,-9999.0,1111122 
SCCF RECON,ioos:station:SCCF:12:1,2011-03-11T02:00:00Z,26.4966,-82.1479,2.054,-9999.0,1111122 
SCCF RECON,ioos:station:SCCF:12:1,2011-03-11T03:00:00Z,26.4966,-82.1479,1.971,-9999.0,1111122 
SCCF RECON,ioos:station:SCCF:12:1,2011-03-11T04:00:00Z,26.4966,-82.1479,1.883,-9999.0,1111122 
SCCF RECON,ioos:station:SCCF:12:1,2011-03-11T05:00:00Z,26.4966,-82.1479,1.822,-9999.0,1111122 
SCCF RECON,ioos:station:SCCF:12:1,2011-03-11T06:00:00Z,26.4966,-82.1479,1.791,-9999.0,1111122 
SCCF RECON,ioos:station:SCCF:12:1,2011-03-11T07:00:00Z,26.4966,-82.1479,1.815,-9999.0,1111122 
SCCF RECON,ioos:station:SCCF:12:1,2011-03-11T08:00:00Z,26.4966,-82.1479,1.92,-9999.0,1111122 
SCCF RECON,ioos:station:SCCF:12:1,2011-03-11T09:00:00Z,26.4966,-82.1479,2.01,-9999.0,1111122 
SCCF RECON,ioos:station:SCCF:12:1,2011-03-11T10:00:00Z,26.4966,-82.1479,2.044,-9999.0,1111122 
SCCF RECON,ioos:station:SCCF:12:1,2011-03-11T11:00:00Z,26.4966,-82.1479,2.042,-9999.0,1111122 